Regional Weather Roundup
Issued by NWS

Home | Current Version | Previous Version | Graphics & Text | Print | Product List | Glossary On
Versions: 1 2 3 4 5 6 7 8 9 10 11 12 13 14 15 16 17 18 19 20 21 22 23 24 25 26 27 28 29 30 31 32 33 34 35 36 37 38 39 40 41 42 43 44 45 46 47 48 49 50
000
ASUS43 KOAX 250202
RWRNE

WEATHER ROUNDUP FOR NEBRASKA
NATIONAL WEATHER SERVICE OMAHA NE
800 PM CST SAT FEB 24 2018

NOTES: SATELLITE DATA IS BEING USED TO AUGMENT CLOUD COVER ABOVE
       12000 FEET.
       "FAIR" INDICATES FEW OR NO CLOUDS BELOW 12,000 FEET WITH NO
       SIGNIFICANT WEATHER AND/OR OBSTRUCTIONS TO VISIBILITY.


NEZ001>004-019>022-054>056-250300-
NEBRASKA PANHANDLE

CITY           SKY/WX    TMP DP  RH WIND       PRES   REMARKS
SCOTTSBLUFF    CLEAR     26  12  55 W13       29.79R WCI  15
ALLIANCE       CLEAR     10   4  76 W14       29.76R WCI  -6
CHADRON        CLEAR     12   5  73 SW7       29.77R WCI   1
GORDON         FAIR      23  11  61 W15       29.73S WCI  10
KIMBALL        PTCLDY    21   8  57 NW9       29.80R WCI  10
SIDNEY         CLEAR     23   9  55 NW13      29.81R WCI  11
$$

NEZ057>060-069>072-079>082-250300-
SOUTHWEST NEBRASKA

CITY           SKY/WX    TMP DP  RH WIND       PRES   REMARKS
NORTH PLATTE   CLEAR     17  10  74 W5        29.82R WCI  10
IMPERIAL       CLEAR     28  13  53 NW8       29.84R WCI  20
LEXINGTON      CLEAR     30  19  61 NW20      29.83R WCI  18
MCCOOK         CLEAR     29  19  66 NW10      29.86R WCI  20
OGALLALA       CLEAR     20  13  76 SW3       29.82R
$$

NEZ005>010-023>029-035>040-094-250300-
NORTH CENTRAL NEBRASKA

CITY           SKY/WX    TMP DP  RH WIND       PRES   REMARKS
VALENTINE      PTCLDY    23  12  62 W10       29.74S WCI  12
BROKEN BOW     CLEAR     26  14  60 W14       29.78R WCI  14
O`NEILL        CLEAR     20  17  87 W13       29.73R WCI   7
ORD            CLEAR     27  15  61 W17G30    29.76R WCI  14
THEDFORD         N/A     22  14  72 W7        29.78R WCI  13
$$

NEZ041-046>049-061>064-073>077-083>087-250300-
SOUTH CENTRAL NEBRASKA

CITY           SKY/WX    TMP DP  RH WIND       PRES   REMARKS
GRAND ISLAND   CLEAR     31  19  61 W17       29.78R WCI  19
AURORA         CLEAR     30  20  68 W16       29.77R WCI  18
HASTINGS       CLEAR     30  18  60 W17       29.79R WCI  18
HEBRON         CLEAR     33  28  80 W9        29.81R WCI  25
HOLDREGE       CLEAR     30  18  62 W10       29.83R WCI  21
KEARNEY        CLEAR     30  18  60 W16G23    29.82R WCI  19
YORK           CLEAR     30  25  80 W18G24    29.76R WCI  18
$$

NEZ011>018-030>034-042>045-250300-
NORTHEAST NEBRASKA

CITY           SKY/WX    TMP DP  RH WIND       PRES   REMARKS
NORFOLK        CLOUDY    28  22  78 NW23G38   29.68R WCI  14
ALBION         CLEAR     29  23  78 NW20      29.73R WCI  16
BLAIR          CLEAR     26  23  90 S7        29.71S WCI  18
COLUMBUS       CLEAR     28  24  85 W14       29.73R WCI  17
FREMONT        CLEAR     26  23  91 SW7       29.73R WCI  18
TEKAMAH        CLOUDY    26  23  88 S9        29.72S WCI  17
WAYNE          CLOUDY    28  27  96 W8        29.69R WCI  20
$$

NEZ050>053-065>068-078-088>093-250300-
SOUTHEAST NEBRASKA

CITY           SKY/WX    TMP DP  RH WIND       PRES   REMARKS
LINCOLN        CLEAR     26  23  88 S6        29.77R WCI  19
OMAHA EPPLEY   PTCLDY    28  24  85 S3        29.74S
BEATRICE       CLEAR     31  29  92 SW9       29.78R WCI  23
FALLS CITY     CLEAR     31  27  85 W12       29.80R WCI  22
NEBRASKA CITY  CLEAR     28  28 100 SW6       29.77R WCI  22
PLATTSMOUTH    CLEAR     27  25  93 SW6       29.75S WCI  21
$$

NEZ044-045-051>053-067-250300-
OMAHA AREA

CITY           SKY/WX    TMP DP  RH WIND       PRES   REMARKS
OMAHA EPPLEY   PTCLDY    28  24  85 S3        29.74S
BLAIR          CLEAR     26  23  90 S7        29.71S WCI  18
FREMONT        CLEAR     26  23  91 SW7       29.73R WCI  18
MILLARD        CLEAR     29  26  86 CALM      29.74F
OFFUTT AFB     PTCLDY    28  25  88 SW3       29.74S
PLATTSMOUTH    CLEAR     27  25  93 SW6       29.75S WCI  21
WAHOO          FAIR      26  24  91 SW6       29.74R WCI  20
$$




USA.gov is the U.S. government's official web portal to all federal, state and local government web resources and services.